Regional Weather Roundup
Issued by NWS

Home | Current Version | Previous Version | Graphics & Text | Print | Product List | Glossary On
Versions: 1 2 3 4 5 6 7 8 9 10 11 12 13 14 15 16 17 18 19 20 21 22 23 24 25 26 27 28 29 30 31 32 33 34 35 36 37 38 39 40 41 42 43 44 45 46 47 48 49 50
000
ASUS45 KABQ 300301
RWRNM
WEATHER ROUNDUP FOR NEW MEXICO
NATIONAL WEATHER SERVICE ALBUQUERQUE NM
900 PM MDT SUN MAR 29 2015

NOTE: "FAIR" MEANS FEW OR NO CLOUDS BELOW 12,000 FEET AGL WITH NO
       SIGNIFICANT WEATHER OR OBSTRUCTIONS TO VISION.

      THIS PRODUCT IS RELEASED AS TWO VERSIONS.  ONE VERSION NEAR
      THE TOP OF THE HOUR CONTAINING PRELIMINARY DATA FROM ALBUQUERQUE
      AND OTHER STATIONS.  A FINAL VERSION WITH ADDITIONAL DATA IS
      ISSUED ABOUT 10 MINUTES AFTER THE HOUR.

NMZ501-503-504-510>518-300400-
NORTHWEST PLATEAU/NORTHCENTRAL MOUNTAINS

CITY           SKY/WX    TMP DP  RH WIND       PRES   REMARKS
FARMINGTON     CLEAR     61  11  14 W5        30.16R
SANTA FE       MOCLDY    60  26  27 E22G38    30.25R
TAOS           CLOUDY    54  27  35 SE18      30.31R

$$
NMZ402-403-502-505>509-300400-
WESTCENTRAL MOUNTAINS/SOUTHWEST MOUNTAINS

CITY           SKY/WX    TMP DP  RH WIND       PRES   REMARKS
GALLUP         MOCLDY    51  11  20 NE6       30.24R

$$
NMZ407-409-411-412-300400-
SOUTHERN DESERTS

CITY           SKY/WX    TMP DP  RH WIND       PRES   REMARKS
DEMING         CLOUDY    70  20  15 NW6       30.14R
ALAMOGORDO     CLOUDY    68  19  15 S3        30.14R
T OR C         CLOUDY    69  15  12 SW6       30.15R

$$
NMZ519>523-300400-
CENTRAL VALLEYS/CENTRAL HIGHLANDS

CITY           SKY/WX    TMP DP  RH WIND       PRES   REMARKS
ALBUQUERQUE    CLOUDY    69  23  17 SE21      30.15R
DOUBLE EAGLE   CLEAR     64  21  19 SE12      30.20R
CLINES CORNERS MOCLDY    52  28  39 E15G24    30.32R
BELEN          FAIR      70  20  15 SE15G21   30.15R
SOCORRO        NOT AVBL

$$
NMZ524>526-539-540-300400-
SOUTHCENTRAL MOUNTAINS

CITY           SKY/WX    TMP DP  RH WIND       PRES   REMARKS
RUIDOSO        NOT AVBL

$$
NMZ527>531-300400-
NORTHEAST HIGHLANDS/NORTHEAST PLAINS

CITY           SKY/WX    TMP DP  RH WIND       PRES   REMARKS
LAS VEGAS      MOCLDY    50  24  36 S12       30.34R
RATON          CLOUDY    55  34  45 SW21      30.30R
CLAYTON        CLOUDY    53  26  35 SE7       30.26R

$$
NMZ532>537-300400-
EASTCENTRAL PLAINS

CITY           SKY/WX    TMP DP  RH WIND       PRES   REMARKS
TUCUMCARI      MOCLDY    57  25  29 SE6       30.23R
CANNON AFB     NOT AVBL
CLOVIS AIRPORT MOCLDY    54  28  37 NE10      30.25S

$$
NMZ028-029-538-300400-
SOUTHEAST PLAINS

CITY           SKY/WX    TMP DP  RH WIND       PRES   REMARKS
ROSWELL        PTCLDY    67  33  28 E8        30.16R
ARTESIA        PTCLDY    70  30  23 E7        30.14R
CARLSBAD       PTCLDY    70  30  22 E9        30.10R
HOBBS          CLEAR     68  28  22 E16G22    30.18R


$$


USA.gov is the U.S. government's official web portal to all federal, state and local government web resources and services.